CW3330 Weather Reports


time (UTC)temp
C
wind
direction
speed
KPH
gust
KPH
rain 1hr
cm
rain 24hr
cm
rain mn
cm
humidity
%
barometer
mb
20260505092331 12 68 9.7 22.5 0.00 0.00 0.00 68 1011.6
20260505091816 12 98 11.3 20.9 0.00 0.00 0.00 67 1011.8
20260505090330 12 40 12.9 19.3 0.00 0.00 0.00 67 1011.8
20260505085332 11 309 8.0 25.7 0.00 0.00 0.00 67 1011.7
20260505084332 11 312 8.0 17.7 0.00 0.00 0.00 74 1011.9
20260505083333 11 30 9.7 19.3 0.00 0.00 0.00 74 1011.9
20260505082332 11 39 11.3 19.3 0.00 0.00 0.00 70 1011.8
20260505081331 11 17 3.2 16.1 0.00 0.00 0.00 77 1011.8
20260505080330 11 39 8.0 16.1 0.00 0.00 0.00 76 1011.9
20260505075332 10 63 8.0 14.5 0.00 0.00 0.00 79 1011.9
20260505074331 10 13 11.3 17.7 0.00 0.00 0.00 80 1011.8
20260505073333 10 9 11.3 20.9 0.00 0.00 0.00 81 1011.9
20260505072332 9 11 6.4 19.3 0.00 0.00 0.00 83 1011.9
20260505071344 9 65 4.8 16.1 0.00 0.00 0.00 80 1011.9
20260505070812 9 308 8.0 19.3 0.00 0.00 0.00 85 1012.0
20260505065841 9 22 12.9 22.5 0.00 0.00 0.00 85 1012.2
20260505064337 9 30 9.7 17.7 0.00 0.00 0.00 85 1012.1
20260505063835 8 30 6.4 19.3 0.00 0.00 0.00 86 1012.0
20260505062331 8 10 11.3 17.7 0.00 0.00 0.00 87 1012.0
20260505061333 8 43 4.8 17.7 0.00 0.00 0.00 90 1012.1
20260505060331 7 5 3.2 4.8 0.00 0.00 0.00 92 1012.0
20260505055805 7 311 1.6 4.8 0.00 0.00 0.00 94 1012.0
20260505054333 6 311 0.0 0.0 0.00 0.00 0.00 93 1012.1
20260505053815 6 311 0.0 4.8 0.00 0.00 0.00 93 1012.0
20260505052332 6 310 3.2 4.8 0.00 0.00 0.00 94 1012.1
20260505051331 5 310 0.0 0.0 0.00 0.00 0.00 94 1012.0
20260505050331 5 310 0.0 0.0 0.00 0.00 0.00 94 1011.9
20260505040333 4 310 0.0 0.0 0.00 0.00 0.00 94 1011.9
20260505035331 4 310 0.0 0.0 0.00 0.00 0.00 94 1011.9
20260505034331 4 310 0.0 0.0 0.00 0.00 0.00 93 1012.0
20260505033331 4 310 0.0 0.0 0.00 0.00 0.00 94 1012.0
20260505032332 4 310 0.0 0.0 0.00 0.00 0.00 93 1012.0
20260505030331 4 310 0.0 0.0 0.00 0.00 0.00 93 1011.9
20260505025332 4 310 0.0 0.0 0.00 0.00 0.00 93 1012.0
20260505024331 4 310 0.0 0.0 0.00 0.00 0.00 93 1012.0
20260505023330 4 310 0.0 0.0 0.00 0.00 0.00 94 1012.1
20260505022850 4 310 0.0 3.2 0.00 0.00 0.00 94 1012.2
20260505021339 4 310 0.0 3.2 0.00 0.00 0.00 93 1012.1
20260505020333 4 310 1.6 3.2 0.00 0.00 0.00 93 1012.2
20260505015340 4 310 0.0 3.2 0.00 0.00 0.00 93 1012.2
20260505014339 4 310 0.0 0.0 0.00 0.03 0.00 93 1012.2
20260505013333 5 310 0.0 0.0 0.00 0.03 0.00 93 1012.3
20260505012346 5 310 0.0 3.2 0.00 0.03 0.00 93 1012.3
20260505011340 5 309 0.0 4.8 0.00 0.03 0.00 93 1012.4
20260505005340 5 309 1.6 4.8 0.00 0.03 0.00 92 1012.4
20260505004333 5 309 3.2 4.8 0.00 0.03 0.00 92 1012.4
20260505003334 5 309 3.2 4.8 0.00 0.03 0.00 92 1012.5
20260505002819 5 309 3.2 4.8 0.00 0.03 0.00 92 1012.6
20260505001813 5 309 3.2 4.8 0.00 0.03 0.00 91 1012.6
20260505000806 5 309 3.2 4.8 0.00 0.03 0.00 91 1012.7
20260504235333 5 309 3.2 4.8 0.00 0.03 0.00 91 1012.6
20260504234333 5 309 3.2 4.8 0.00 0.03 0.00 90 1012.5
20260504233331 6 309 0.0 0.0 0.00 0.03 0.00 90 1012.7
20260504232331 6 309 0.0 0.0 0.00 0.03 0.00 90 1012.7
20260504231331 6 309 0.0 0.0 0.00 0.03 0.00 89 1012.7
20260504230331 6 309 0.0 0.0 0.00 0.03 0.00 89 1012.8
20260504225332 6 309 0.0 3.2 0.00 0.03 0.00 88 1012.8
20260504224813 6 309 1.6 6.4 0.00 0.03 0.00 88 1013.0
20260504222338 6 310 3.2 4.8 0.00 0.03 0.00 87 1013.0
20260504221320 6 310 3.2 6.4 0.00 0.03 0.00 87 1013.1
20260504220320 7 313 4.8 6.4 0.00 0.03 0.00 86 1013.0
20260504215312 7 315 3.2 4.8 0.00 0.03 0.03 86 1013.1
20260504214308 7 315 3.2 4.8 0.00 0.03 0.03 86 1013.2
20260504213304 7 315 1.6 4.8 0.00 0.03 0.03 85 1013.3
20260504212304 7 315 0.0 3.2 0.00 0.03 0.03 84 1013.3
20260504211303 7 315 3.2 6.4 0.00 0.03 0.03 84 1013.3
20260504210743 8 296 3.2 6.4 0.00 0.03 0.03 84 1013.3
20260504205304 8 294 4.8 8.0 0.00 0.03 0.03 84 1013.1
20260504204303 8 292 6.4 6.4 0.00 0.03 0.03 84 1013.1
20260504203303 8 284 3.2 4.8 0.00 0.03 0.03 85 1013.1
20260504202305 8 282 3.2 4.8 0.00 0.03 0.03 84 1013.2
20260504201303 8 282 1.6 3.2 0.00 0.03 0.03 83 1013.1
20260504200741 9 282 1.6 4.8 0.00 0.05 0.03 82 1013.0
20260504195304 9 282 0.0 4.8 0.00 0.05 0.03 81 1012.8
20260504194301 10 281 1.6 11.3 0.00 0.13 0.03 80 1012.6
20260504193257 10 282 3.2 6.4 0.00 0.15 0.03 79 1012.7
20260504192254 10 281 1.6 8.0 0.00 0.15 0.03 78 1012.7
20260504191735 10 297 4.8 6.4 0.00 0.15 0.03 77 1012.7
20260504190247 11 296 1.6 6.4 0.00 0.15 0.03 75 1012.6
20260504185715 11 298 4.8 6.4 0.00 0.15 0.03 74 1012.6
20260504184720 11 298 3.2 6.4 0.00 0.15 0.03 73 1012.5
20260504183232 11 305 3.2 12.9 0.00 0.15 0.03 72 1012.5
20260504182232 12 306 3.2 12.9 0.00 0.15 0.03 71 1012.5
20260504181233 12 316 4.8 11.3 0.00 0.15 0.03 71 1012.4
20260504180231 12 284 4.8 14.5 0.00 0.43 0.03 71 1012.5
20260504175232 12 325 4.8 14.5 0.00 0.79 0.03 71 1012.4
20260504174231 13 321 6.4 14.5 0.00 0.81 0.03 71 1012.4
20260504173232 13 295 6.4 14.5 0.00 0.81 0.03 70 1012.4
20260504172707 13 279 6.4 14.5 0.00 0.81 0.03 70 1012.4
20260504171231 13 279 6.4 14.5 0.00 0.81 0.03 71 1012.4
20260504170241 13 321 8.0 16.1 0.00 0.81 0.03 70 1012.4
20260504160232 15 319 8.0 16.1 0.00 1.07 0.03 66 1012.5
20260504150232 15 275 8.0 14.5 0.00 1.07 0.03 69 1012.8
20260504141231 15 294 9.7 19.3 0.00 1.07 0.03 67 1012.9
20260504140232 15 244 11.3 19.3 0.00 1.07 0.03 68 1012.9
20260504130232 14 0 9.7 17.7 0.00 1.07 0.03 73 1013.1
20260504120239 13 278 9.7 20.9 0.00 1.07 0.03 74 1013.0
20260504110231 13 220 4.8 22.5 0.00 1.07 0.03 76 1012.8